When you browse on this site, cookies collect data to enhance your experience and personalize the content and advertising you see.
Visit our Privacy Policy to learn more. By continuing to use the site, you agree to this use of cookies and data.
  • In Latvia
  • List of Countries
  • For 7 days
  • Water Temperature
  • Satellite Maps
  • Weather Map
  • Weather Widgets
  • user-avatar
    Login

    Hourly Weather Brisbane

    Today, 24 May, Friday

    Time Temperature Precipitation Wind Pressure Humidity
    00:00 +17°C° 0.1 mm 2 mps 766 mmHg 89%
    01:00 +17°C° 0.1 mm 2 mps 766 mmHg 89%
    02:00 +17°C° 0 mm 2 mps 766 mmHg 90%
    03:00 +16°C° 0 mm 2 mps 766 mmHg 90%
    04:00 +16°C° 0 mm 2 mps 766 mmHg 91%
    05:00 +16°C° 0 mm 2 mps 766 mmHg 90%
    06:00 +16°C° 0 mm 2 mps 766 mmHg 90%
    07:00 +16°C° 0 mm 2 mps 766 mmHg 89%
    08:00 +18°C° 0 mm 2 mps 766 mmHg 80%
    09:00 +21°C° 0 mm 2 mps 766 mmHg 71%
    10:00 +24°C° 0 mm 2 mps 766 mmHg 62%
    11:00 +25°C° 0 mm 2 mps 765 mmHg 59%
    12:00 +25°C° 0 mm 2 mps 764 mmHg 56%
    13:00 +26°C° 0 mm 2 mps 764 mmHg 53%
    14:00 +25°C° 0.2 mm 2 mps 764 mmHg 59%
    15:00 +24°C° 0.2 mm 2 mps 764 mmHg 65%
    16:00 +22°C° 0.2 mm 3 mps 763 mmHg 71%
    17:00 +21°C° 0.2 mm 2 mps 764 mmHg 75%
    18:00 +20°C° 0.2 mm 2 mps 764 mmHg 79%
    19:00 +19°C° 0.2 mm 2 mps 764 mmHg 84%
    20:00 +20°C° 0.1 mm 1 mps 764 mmHg 85%
    21:00 +19°C° 0.1 mm 1 mps 765 mmHg 86%
    22:00 +19°C° 0.1 mm 1 mps 765 mmHg 88%
    23:00 +18°C° 0 mm 1 mps 765 mmHg 89%

    Tomorrow, 25 May, Saturday

    Time Temperature Precipitation Wind Pressure Humidity
    00:00 +17°C° 0 mm 2 mps 765 mmHg 90%
    01:00 +17°C° 0 mm 2 mps 764 mmHg 92%
    02:00 +16°C° 0 mm 2 mps 764 mmHg 92%
    03:00 +16°C° 0 mm 2 mps 764 mmHg 92%
    04:00 +16°C° 0 mm 2 mps 764 mmHg 92%
    05:00 +16°C° 0 mm 2 mps 764 mmHg 91%
    06:00 +16°C° 0 mm 2 mps 764 mmHg 91%
    07:00 +15°C° 0 mm 2 mps 764 mmHg 90%
    08:00 +18°C° 0 mm 2 mps 764 mmHg 80%
    09:00 +21°C° 0 mm 1 mps 764 mmHg 71%
    10:00 +24°C° 0 mm 1 mps 764 mmHg 61%
    11:00 +25°C° 0 mm 1 mps 764 mmHg 56%
    12:00 +26°C° 0 mm 1 mps 763 mmHg 51%
    13:00 +27°C° 0 mm 1 mps 762 mmHg 46%
    14:00 +26°C° 0 mm 1 mps 762 mmHg 50%
    15:00 +25°C° 0 mm 2 mps 762 mmHg 54%
    16:00 +24°C° 0 mm 2 mps 761 mmHg 57%
    17:00 +23°C° 0 mm 2 mps 762 mmHg 66%
    18:00 +21°C° 0 mm 2 mps 762 mmHg 74%
    19:00 +19°C° 0 mm 2 mps 762 mmHg 83%
    20:00 +20°C° 0.1 mm 1 mps 762 mmHg 84%
    21:00 +19°C° 0.1 mm 1 mps 763 mmHg 85%
    22:00 +17°C° 0.1 mm 0 mps 763 mmHg 86%
    23:00 +19°C° 0 mm 1 mps 763 mmHg 87%

    Day after tomorrow, 26 May, Sunday

    Time Temperature Precipitation Wind Pressure Humidity
    00:00 +18°C° 0 mm 1 mps 762 mmHg 89%
    01:00 +18°C° 0 mm 1 mps 762 mmHg 90%
    02:00 +18°C° 0 mm 1 mps 762 mmHg 90%
    03:00 +16°C° 0 mm 2 mps 762 mmHg 90%
    04:00 +16°C° 0 mm 2 mps 762 mmHg 90%
    05:00 +16°C° 0 mm 2 mps 762 mmHg 89%
    06:00 +16°C° 0 mm 2 mps 762 mmHg 88%
    07:00 +16°C° 0 mm 2 mps 762 mmHg 87%
    08:00 +18°C° 0 mm 2 mps 762 mmHg 76%
    09:00 +20°C° 0 mm 2 mps 762 mmHg 64%
    10:00 +24°C° 0 mm 2 mps 762 mmHg 53%
    11:00 +25°C° 0 mm 1 mps 761 mmHg 47%
    12:00 +26°C° 0 mm 1 mps 761 mmHg 41%
    13:00 +27°C° 0 mm 1 mps 760 mmHg 35%
    14:00 +27°C° 0 mm 1 mps 760 mmHg 38%
    15:00 +26°C° 0 mm 2 mps 759 mmHg 41%
    16:00 +26°C° 0 mm 2 mps 759 mmHg 44%
    17:00 +24°C° 0 mm 2 mps 760 mmHg 50%
    18:00 +22°C° 0 mm 3 mps 760 mmHg 57%
    19:00 +20°C° 0 mm 3 mps 760 mmHg 63%
    20:00 +19°C° 0 mm 3 mps 761 mmHg 63%
    21:00 +18°C° 0 mm 2 mps 761 mmHg 64%
    22:00 +18°C° 0 mm 2 mps 761 mmHg 64%
    23:00 +17°C° 0 mm 2 mps 761 mmHg 61%

    27 May, Monday

    Time Temperature Precipitation Wind Pressure Humidity
    00:00 +17°C° 0 mm 2 mps 760 mmHg 57%
    01:00 +16°C° 0 mm 2 mps 760 mmHg 53%
    02:00 +16°C° 0 mm 2 mps 760 mmHg 53%
    03:00 +16°C° 0 mm 2 mps 760 mmHg 53%
    04:00 +15°C° 0 mm 2 mps 760 mmHg 53%
    05:00 +16°C° 0 mm 2 mps 760 mmHg 54%
    06:00 +16°C° 0 mm 2 mps 760 mmHg 54%
    07:00 +16°C° 0 mm 3 mps 761 mmHg 55%
    08:00 +18°C° 0 mm 3 mps 761 mmHg 49%
    09:00 +21°C° 0 mm 3 mps 761 mmHg 43%
    10:00 +25°C° 0 mm 3 mps 760 mmHg 37%
    11:00 +26°C° 0 mm 4 mps 760 mmHg 34%
    12:00 +27°C° 0 mm 4 mps 759 mmHg 31%
    13:00 +28°C° 0 mm 4 mps 758 mmHg 28%
    14:00 +28°C° 0 mm 4 mps 758 mmHg 29%
    15:00 +27°C° 0 mm 4 mps 758 mmHg 31%
    16:00 +26°C° 0 mm 4 mps 758 mmHg 32%
    17:00 +23°C° 0 mm 4 mps 759 mmHg 31%
    18:00 +21°C° 0 mm 4 mps 759 mmHg 31%
    19:00 +19°C° 0 mm 4 mps 760 mmHg 30%
    20:00 +18°C° 0 mm 4 mps 760 mmHg 33%
    21:00 +17°C° 0 mm 4 mps 761 mmHg 36%
    22:00 +15°C° 0 mm 4 mps 762 mmHg 39%
    23:00 +15°C° 0 mm 4 mps 761 mmHg 43%

    28 May, Tuesday

    Time Temperature Precipitation Wind Pressure Humidity
    00:00 +14°C° 0 mm 4 mps 761 mmHg 47%
    01:00 +14°C° 0 mm 4 mps 761 mmHg 51%
    02:00 +13°C° 0 mm 4 mps 762 mmHg 54%
    03:00 +12°C° 0 mm 4 mps 762 mmHg 57%
    04:00 +12°C° 0 mm 3 mps 762 mmHg 61%
    05:00 +11°C° 0 mm 3 mps 762 mmHg 61%
    06:00 +11°C° 0 mm 3 mps 763 mmHg 61%
    07:00 +11°C° 0 mm 3 mps 763 mmHg 61%
    08:00 +13°C° 0 mm 3 mps 763 mmHg 53%
    09:00 +16°C° 0 mm 3 mps 763 mmHg 44%
    10:00 +18°C° 0 mm 2 mps 763 mmHg 35%
    11:00 +20°C° 0 mm 2 mps 762 mmHg 32%
    12:00 +22°C° 0 mm 1 mps 762 mmHg 28%
    13:00 +24°C° 0 mm 1 mps 761 mmHg 24%
    14:00 +23°C° 0 mm 1 mps 761 mmHg 27%
    15:00 +23°C° 0 mm 1 mps 761 mmHg 30%
    16:00 +21°C° 0 mm 2 mps 761 mmHg 33%
    17:00 +20°C° 0 mm 2 mps 761 mmHg 38%
    18:00 +18°C° 0 mm 2 mps 762 mmHg 43%
    19:00 +16°C° 0 mm 1 mps 762 mmHg 48%
    20:00 +15°C° 0 mm 2 mps 762 mmHg 48%
    21:00 +14°C° 0 mm 2 mps 762 mmHg 48%
    22:00 +13°C° 0 mm 3 mps 763 mmHg 47%
    23:00 +12°C° 0 mm 3 mps 762 mmHg 49%

    29 May, Wednesday

    Time Temperature Precipitation Wind Pressure Humidity
    00:00 +11°C° 0 mm 3 mps 762 mmHg 50%
    01:00 +11°C° 0 mm 3 mps 762 mmHg 51%
    02:00 +11°C° 0 mm 3 mps 762 mmHg 52%
    03:00 +10°C° 0 mm 3 mps 762 mmHg 54%
    04:00 +10°C° 0 mm 3 mps 762 mmHg 55%
    05:00 +10°C° 0 mm 4 mps 762 mmHg 56%
    06:00 +10°C° 0 mm 4 mps 762 mmHg 58%
    07:00 +10°C° 0 mm 4 mps 763 mmHg 60%
    08:00 +12°C° 0 mm 4 mps 762 mmHg 53%
    09:00 +14°C° 0 mm 4 mps 762 mmHg 47%
    10:00 +18°C° 0 mm 4 mps 762 mmHg 40%
    11:00 +19°C° 0 mm 4 mps 761 mmHg 36%
    12:00 +21°C° 0 mm 3 mps 761 mmHg 32%
    13:00 +24°C° 0 mm 3 mps 760 mmHg 28%
    14:00 +24°C° 0 mm 3 mps 760 mmHg 29%
    15:00 +22°C° 0 mm 3 mps 759 mmHg 30%
    16:00 +22°C° 0 mm 3 mps 759 mmHg 31%
    17:00 +20°C° 0 mm 3 mps 760 mmHg 33%
    18:00 +18°C° 0 mm 3 mps 760 mmHg 36%
    19:00 +16°C° 0 mm 3 mps 760 mmHg 38%
    20:00 +14°C° 0 mm 3 mps 761 mmHg 40%
    21:00 +15°C° 0 mm 2 mps 761 mmHg 42%
    22:00 +14°C° 0 mm 2 mps 761 mmHg 44%
    23:00 +13°C° 0 mm 2 mps 761 mmHg 44%
    Show more